Time,TemperatureF,DewpointF,PressureIn,WindDirection,WindDirectionDegrees,WindSpeedMPH,WindSpeedGustMPH,Humidity,HourlyPrecipIn,Conditions,Clouds,dailyrainin,SoftwareType,DateUTC
2013-03-19 00:00:00,16.7,9.6,29.70,WNW,293,13.4,17.4,73,0.00,,,0.00,WUHU216HW,2013-03-19 05:00:00,
2013-03-19 00:05:00,16.6,9.6,29.70,WNW,293,9.2,17.4,74,0.00,,,0.00,WUHU216HW,2013-03-19 05:05:00,
2013-03-19 00:10:00,16.6,9.4,29.70,WNW,293,5.8,15.2,73,0.00,,,0.00,WUHU216HW,2013-03-19 05:10:00,
2013-03-19 00:15:00,16.6,9.4,29.70,WNW,293,9.2,16.8,73,0.00,,,0.00,WUHU216HW,2013-03-19 05:15:00,
2013-03-19 00:20:00,16.4,9.2,29.70,WNW,293,7.4,16.8,73,0.00,,,0.00,WUHU216HW,2013-03-19 05:20:00,
2013-03-19 00:25:00,16.4,9.2,29.70,WNW,293,9.8,16.6,73,0.00,,,0.00,WUHU216HW,2013-03-19 05:25:00,
2013-03-19 00:30:00,16.4,9.2,29.70,WNW,293,11.4,12.8,73,0.00,,,0.00,WUHU216HW,2013-03-19 05:30:00,
2013-03-19 00:35:00,16.2,8.7,29.70,WNW,293,9.8,14.5,72,0.00,,,0.00,WUHU216HW,2013-03-19 05:35:00,
2013-03-19 00:40:00,16.2,8.7,29.70,WNW,293,9.2,14.5,72,0.00,,,0.00,WUHU216HW,2013-03-19 05:40:00,
2013-03-19 00:45:00,16.0,9.2,29.70,WNW,293,5.4,14.5,74,0.00,,,0.00,WUHU216HW,2013-03-19 05:45:00,
2013-03-19 00:50:00,15.8,8.6,29.70,WNW,293,10.5,14.5,73,0.00,,,0.00,WUHU216HW,2013-03-19 05:50:00,
2013-03-19 00:55:00,15.8,8.4,29.69,WNW,293,10.5,17.2,72,0.00,,,0.00,WUHU216HW,2013-03-19 05:55:00,
2013-03-19 01:00:00,15.7,8.2,29.69,WNW,293,8.5,17.2,72,0.00,,,0.00,WUHU216HW,2013-03-19 06:00:00,
2013-03-19 01:05:00,15.5,8.0,29.70,WNW,293,8.3,17.2,72,0.00,,,0.00,WUHU216HW,2013-03-19 06:05:00,
2013-03-19 01:10:00,15.5,8.0,29.69,WNW,293,9.8,14.5,72,0.00,,,0.00,WUHU216HW,2013-03-19 06:10:00,
2013-03-19 01:15:00,15.3,8.2,29.69,WNW,293,10.5,14.5,73,0.00,,,0.00,WUHU216HW,2013-03-19 06:15:00,
2013-03-19 01:20:00,15.3,8.5,29.69,WNW,293,11.4,15.0,74,0.00,,,0.00,WUHU216HW,2013-03-19 06:20:00,
2013-03-19 01:25:00,15.3,9.1,29.69,WNW,293,7.2,15.0,76,0.00,,,0.00,WUHU216HW,2013-03-19 06:25:00,
2013-03-19 01:30:00,15.3,9.1,29.69,WNW,293,6.3,12.3,76,0.00,,,0.00,WUHU216HW,2013-03-19 06:30:00,
2013-03-19 01:35:00,15.5,9.3,29.69,WNW,293,8.5,12.8,76,0.00,,,0.00,WUHU216HW,2013-03-19 06:35:00,
2013-03-19 01:40:00,15.5,9.3,29.69,WNW,293,7.6,17.7,76,0.00,,,0.00,WUHU216HW,2013-03-19 06:40:00,
2013-03-19 01:45:00,15.5,8.9,29.70,WNW,293,9.2,17.7,75,0.00,,,0.00,WUHU216HW,2013-03-19 06:45:00,
2013-03-19 01:50:00,15.5,8.9,29.69,WNW,293,7.4,15.7,75,0.00,,,0.00,WUHU216HW,2013-03-19 06:50:00,
2013-03-19 01:55:00,15.3,9.1,29.70,WNW,293,10.1,14.1,76,0.00,,,0.00,WUHU216HW,2013-03-19 06:55:00,
2013-03-19 02:00:00,15.3,9.4,29.69,WNW,293,8.5,12.8,77,0.00,,,0.00,WUHU216HW,2013-03-19 07:00:00,
2013-03-19 02:05:00,15.3,9.6,29.70,WNW,293,2.7,11.4,78,0.00,,,0.00,WUHU216HW,2013-03-19 07:05:00,
2013-03-19 02:10:00,15.3,10.0,29.70,WNW,293,12.8,12.8,79,0.00,,,0.00,WUHU216HW,2013-03-19 07:10:00,
2013-03-19 02:15:00,15.3,9.1,29.70,WNW,293,10.1,12.8,76,0.00,,,0.00,WUHU216HW,2013-03-19 07:15:00,
2013-03-19 02:20:00,15.1,8.9,29.70,WNW,293,12.3,15.0,76,0.00,,,0.00,WUHU216HW,2013-03-19 07:20:00,
2013-03-19 02:25:00,14.9,8.4,29.70,WNW,293,9.6,18.6,75,0.00,,,0.00,WUHU216HW,2013-03-19 07:25:00,
2013-03-19 02:30:00,14.9,8.7,29.70,WNW,293,6.5,18.6,76,0.00,,,0.00,WUHU216HW,2013-03-19 07:30:00,
2013-03-19 02:35:00,14.8,8.6,29.70,WNW,293,8.5,15.0,76,0.00,,,0.00,WUHU216HW,2013-03-19 07:35:00,
2013-03-19 02:40:00,14.8,8.6,29.70,WNW,293,8.5,16.6,76,0.00,,,0.00,WUHU216HW,2013-03-19 07:40:00,
2013-03-19 02:45:00,14.6,8.4,29.70,WNW,293,9.8,16.6,76,0.00,,,0.00,WUHU216HW,2013-03-19 07:45:00,
2013-03-19 02:50:00,14.4,8.2,29.70,WNW,293,6.3,12.8,76,0.00,,,0.00,WUHU216HW,2013-03-19 07:50:00,
2013-03-19 02:55:00,14.4,8.2,29.70,WNW,293,11.2,11.2,76,0.00,,,0.00,WUHU216HW,2013-03-19 07:55:00,
2013-03-19 03:00:00,14.4,8.2,29.70,WNW,293,9.8,11.6,76,0.00,,,0.00,WUHU216HW,2013-03-19 08:00:00,
2013-03-19 03:05:00,14.2,8.0,29.70,WNW,293,9.2,14.5,76,0.00,,,0.00,WUHU216HW,2013-03-19 08:05:00,
2013-03-19 03:10:00,14.0,7.8,29.70,WNW,293,8.3,16.8,76,0.00,,,0.00,WUHU216HW,2013-03-19 08:10:00,
2013-03-19 03:15:00,14.0,7.8,29.70,WNW,293,9.8,16.8,76,0.00,,,0.00,WUHU216HW,2013-03-19 08:15:00,
2013-03-19 03:20:00,14.0,7.8,29.71,WNW,293,5.8,12.5,76,0.00,,,0.00,WUHU216HW,2013-03-19 08:20:00,
2013-03-19 03:25:00,14.0,7.8,29.70,WNW,293,9.6,12.8,76,0.00,,,0.00,WUHU216HW,2013-03-19 08:25:00,
2013-03-19 03:30:00,14.0,7.8,29.70,WNW,293,9.2,12.8,76,0.00,,,0.00,WUHU216HW,2013-03-19 08:30:00,
2013-03-19 03:35:00,14.0,7.8,29.70,WNW,293,11.6,13.2,76,0.00,,,0.00,WUHU216HW,2013-03-19 08:35:00,
2013-03-19 03:40:00,14.0,7.8,29.70,WNW,293,7.6,13.2,76,0.00,,,0.00,WUHU216HW,2013-03-19 08:40:00,
2013-03-19 03:45:00,14.0,7.8,29.70,WNW,293,7.6,13.0,76,0.00,,,0.00,WUHU216HW,2013-03-19 08:45:00,
2013-03-19 03:50:00,13.9,7.7,29.70,WNW,293,11.2,13.0,76,0.00,,,0.00,WUHU216HW,2013-03-19 08:50:00,
2013-03-19 03:55:00,14.0,7.8,29.70,WNW,293,4.7,14.3,76,0.00,,,0.00,WUHU216HW,2013-03-19 08:55:00,
2013-03-19 04:00:00,14.0,7.6,29.71,WNW,293,11.0,14.3,75,0.00,,,0.00,WUHU216HW,2013-03-19 09:00:00,
2013-03-19 04:05:00,14.0,7.8,29.70,WNW,293,3.4,13.4,76,0.00,,,0.00,WUHU216HW,2013-03-19 09:05:00,
2013-03-19 04:10:00,13.9,7.7,29.70,WNW,293,4.7,11.9,76,0.00,,,0.00,WUHU216HW,2013-03-19 09:10:00,
2013-03-19 04:15:00,13.9,7.7,29.71,WNW,293,9.8,13.4,76,0.00,,,0.00,WUHU216HW,2013-03-19 09:15:00,
2013-03-19 04:20:00,13.9,7.7,29.71,WNW,293,5.6,13.4,76,0.00,,,0.00,WUHU216HW,2013-03-19 09:20:00,
2013-03-19 04:25:00,13.9,7.7,29.71,WNW,293,12.5,12.5,76,0.00,,,0.00,WUHU216HW,2013-03-19 09:25:00,
2013-03-19 04:30:00,13.9,7.7,29.71,WNW,293,8.7,12.5,76,0.00,,,0.00,WUHU216HW,2013-03-19 09:30:00,
2013-03-19 04:35:00,13.9,7.7,29.71,WNW,293,8.5,12.5,76,0.00,,,0.00,WUHU216HW,2013-03-19 09:35:00,
2013-03-19 04:40:00,13.7,7.5,29.72,WNW,293,8.5,11.4,76,0.00,,,0.00,WUHU216HW,2013-03-19 09:40:00,
2013-03-19 04:45:00,13.7,7.5,29.72,WNW,293,8.3,12.3,76,0.00,,,0.00,WUHU216HW,2013-03-19 09:45:00,
2013-03-19 04:50:00,13.5,7.3,29.72,WNW,293,10.1,12.3,76,0.00,,,0.00,WUHU216HW,2013-03-19 09:50:00,
2013-03-19 04:55:00,13.3,7.1,29.72,WNW,293,7.6,10.1,76,0.00,,,0.00,WUHU216HW,2013-03-19 09:55:00,
2013-03-19 05:00:00,13.3,7.1,29.73,WNW,293,7.6,15.2,76,0.00,,,0.00,WUHU216HW,2013-03-19 10:00:00,
2013-03-19 05:05:00,13.3,7.1,29.73,WNW,293,11.0,15.2,76,0.00,,,0.00,WUHU216HW,2013-03-19 10:05:00,
2013-03-19 05:10:00,13.3,7.1,29.73,WNW,293,5.1,12.8,76,0.00,,,0.00,WUHU216HW,2013-03-19 10:10:00,
2013-03-19 05:15:00,13.3,7.1,29.73,WNW,293,7.6,11.4,76,0.00,,,0.00,WUHU216HW,2013-03-19 10:15:00,
2013-03-19 05:20:00,13.1,6.9,29.73,WNW,293,4.9,11.4,76,0.00,,,0.00,WUHU216HW,2013-03-19 10:20:00,
2013-03-19 05:25:00,13.1,6.9,29.74,WNW,293,10.7,12.8,76,0.00,,,0.00,WUHU216HW,2013-03-19 10:25:00,
2013-03-19 05:30:00,13.0,6.8,29.74,WNW,293,7.2,12.8,76,0.00,,,0.00,WUHU216HW,2013-03-19 10:30:00,
2013-03-19 05:35:00,13.0,6.8,29.74,WNW,293,8.1,12.1,76,0.00,,,0.00,WUHU216HW,2013-03-19 10:35:00,
2013-03-19 05:40:00,12.8,6.6,29.74,WNW,293,6.0,12.1,76,0.00,,,0.00,WUHU216HW,2013-03-19 10:40:00,
2013-03-19 05:45:00,12.8,6.6,29.74,WNW,293,6.3,11.6,76,0.00,,,0.00,WUHU216HW,2013-03-19 10:45:00,
2013-03-19 05:50:00,12.6,6.4,29.74,WNW,293,9.4,12.5,76,0.00,,,0.00,WUHU216HW,2013-03-19 10:50:00,
2013-03-19 05:55:00,12.6,6.4,29.74,WNW,293,6.0,12.5,76,0.00,,,0.00,WUHU216HW,2013-03-19 10:55:00,
2013-03-19 06:00:00,12.4,6.5,29.74,WNW,293,3.6,12.5,77,0.00,,,0.00,WUHU216HW,2013-03-19 11:00:00,
2013-03-19 06:05:00,12.2,6.3,29.75,WNW,293,3.8,9.6,77,0.00,,,0.00,WUHU216HW,2013-03-19 11:05:00,
2013-03-19 06:10:00,12.2,6.0,29.75,WNW,293,10.1,14.8,76,0.00,,,0.00,WUHU216HW,2013-03-19 11:10:00,
2013-03-19 06:15:00,12.2,6.0,29.75,WNW,293,9.2,14.8,76,0.00,,,0.00,WUHU216HW,2013-03-19 11:15:00,
2013-03-19 06:20:00,12.2,6.3,29.75,WNW,293,3.4,10.7,77,0.00,,,0.00,WUHU216HW,2013-03-19 11:20:00,
2013-03-19 06:25:00,12.2,6.3,29.75,WNW,293,5.4,10.3,77,0.00,,,0.00,WUHU216HW,2013-03-19 11:25:00,
2013-03-19 06:30:00,12.1,6.1,29.76,WNW,293,6.3,13.2,77,0.00,,,0.00,WUHU216HW,2013-03-19 11:30:00,
2013-03-19 06:35:00,12.1,6.1,29.76,WNW,293,5.4,13.2,77,0.00,,,0.00,WUHU216HW,2013-03-19 11:35:00,
2013-03-19 06:40:00,11.9,5.9,29.76,WNW,293,6.9,10.5,77,0.00,,,0.00,WUHU216HW,2013-03-19 11:40:00,
2013-03-19 06:45:00,11.9,5.9,29.76,WNW,293,12.1,12.1,77,0.00,,,0.00,WUHU216HW,2013-03-19 11:45:00,
2013-03-19 06:50:00,11.9,5.9,29.76,WNW,293,7.4,12.1,77,0.00,,,0.00,WUHU216HW,2013-03-19 11:50:00,
2013-03-19 06:55:00,11.9,5.9,29.77,WNW,293,6.3,12.1,77,0.00,,,0.00,WUHU216HW,2013-03-19 11:55:00,
2013-03-19 07:00:00,11.9,5.9,29.77,WNW,293,6.5,11.6,77,0.00,,,0.00,WUHU216HW,2013-03-19 12:00:00,
2013-03-19 07:05:00,11.7,5.8,29.77,WNW,293,11.2,13.4,77,0.00,,,0.00,WUHU216HW,2013-03-19 12:05:00,
2013-03-19 07:10:00,11.9,5.9,29.77,WNW,293,6.7,13.4,77,0.00,,,0.00,WUHU216HW,2013-03-19 12:10:00,
2013-03-19 07:15:00,11.7,5.8,29.78,WNW,293,7.4,11.2,77,0.00,,,0.00,WUHU216HW,2013-03-19 12:15:00,
2013-03-19 07:20:00,11.7,5.8,29.78,WNW,293,11.4,11.9,77,0.00,,,0.00,WUHU216HW,2013-03-19 12:20:00,
2013-03-19 07:25:00,11.7,5.8,29.78,WNW,293,9.4,11.9,77,0.00,,,0.00,WUHU216HW,2013-03-19 12:25:00,
2013-03-19 07:30:00,11.9,5.9,29.78,WNW,293,6.7,15.7,77,0.00,,,0.00,WUHU216HW,2013-03-19 12:30:00,
2013-03-19 07:35:00,12.1,6.1,29.78,WNW,293,6.0,15.7,77,0.00,,,0.00,WUHU216HW,2013-03-19 12:35:00,
2013-03-19 07:40:00,12.2,6.0,29.78,WNW,293,6.7,9.8,76,0.00,,,0.00,WUHU216HW,2013-03-19 12:40:00,
2013-03-19 07:45:00,12.2,6.0,29.78,WNW,293,3.8,7.6,76,0.00,,,0.00,WUHU216HW,2013-03-19 12:45:00,
2013-03-19 07:50:00,12.2,6.0,29.78,WNW,293,6.7,9.6,76,0.00,,,0.00,WUHU216HW,2013-03-19 12:50:00,
2013-03-19 07:55:00,11.9,5.7,29.78,WNW,293,4.0,9.6,76,0.00,,,0.00,WUHU216HW,2013-03-19 12:55:00,
2013-03-19 08:00:00,11.7,5.5,29.79,WNW,293,5.4,8.5,76,0.00,,,0.00,WUHU216HW,2013-03-19 13:00:00,
2013-03-19 08:05:00,11.7,5.5,29.79,WNW,293,8.7,8.9,76,0.00,,,0.00,WUHU216HW,2013-03-19 13:05:00,
2013-03-19 08:10:00,11.7,5.5,29.79,WNW,293,8.5,11.0,76,0.00,,,0.00,WUHU216HW,2013-03-19 13:10:00,
2013-03-19 08:15:00,11.9,5.7,29.79,WNW,293,2.5,11.4,76,0.00,,,0.00,WUHU216HW,2013-03-19 13:15:00,
2013-03-19 08:20:00,11.9,5.7,29.79,WNW,293,4.5,11.4,76,0.00,,,0.00,WUHU216HW,2013-03-19 13:20:00,
2013-03-19 08:25:00,11.9,5.7,29.79,WNW,293,6.5,13.9,76,0.00,,,0.00,WUHU216HW,2013-03-19 13:25:00,
2013-03-19 08:30:00,11.9,5.7,29.79,WNW,293,6.3,13.9,76,0.00,,,0.00,WUHU216HW,2013-03-19 13:30:00,
2013-03-19 08:35:00,12.1,5.6,29.79,WNW,293,9.8,14.3,75,0.00,,,0.00,WUHU216HW,2013-03-19 13:35:00,
2013-03-19 08:40:00,12.2,5.8,29.80,WNW,293,10.5,14.3,75,0.00,,,0.00,WUHU216HW,2013-03-19 13:40:00,
2013-03-19 08:45:00,12.6,5.9,29.80,WNW,293,6.9,13.9,74,0.00,,,0.00,WUHU216HW,2013-03-19 13:45:00,
2013-03-19 08:50:00,12.6,5.9,29.80,WNW,293,4.7,12.8,74,0.00,,,0.00,WUHU216HW,2013-03-19 13:50:00,
2013-03-19 08:55:00,12.6,5.6,29.80,WNW,293,9.6,17.2,73,0.00,,,0.00,WUHU216HW,2013-03-19 13:55:00,
2013-03-19 09:00:00,12.8,6.3,29.80,WNW,293,9.8,17.2,75,0.00,,,0.00,WUHU216HW,2013-03-19 14:00:00,
2013-03-19 09:05:00,13.1,6.4,29.81,WNW,293,15.2,15.2,74,0.00,,,0.00,WUHU216HW,2013-03-19 14:05:00,
2013-03-19 09:10:00,13.3,6.6,29.81,WNW,293,12.1,15.7,74,0.00,,,0.00,WUHU216HW,2013-03-19 14:10:00,
2013-03-19 09:15:00,13.3,6.6,29.81,WNW,293,7.6,15.7,74,0.00,,,0.00,WUHU216HW,2013-03-19 14:15:00,
2013-03-19 09:20:00,13.7,6.9,29.82,WNW,293,12.5,13.2,74,0.00,,,0.00,WUHU216HW,2013-03-19 14:20:00,
2013-03-19 09:25:00,13.9,6.9,29.82,WNW,293,9.6,14.8,73,0.00,,,0.00,WUHU216HW,2013-03-19 14:25:00,
2013-03-19 09:30:00,13.9,6.9,29.82,WNW,293,7.6,14.8,73,0.00,,,0.00,WUHU216HW,2013-03-19 14:30:00,
2013-03-19 09:35:00,14.2,7.1,29.83,WNW,293,11.0,15.2,73,0.00,,,0.00,WUHU216HW,2013-03-19 14:35:00,
2013-03-19 09:40:00,14.2,6.8,29.82,WNW,293,14.8,15.2,72,0.00,,,0.00,WUHU216HW,2013-03-19 14:40:00,
2013-03-19 09:46:00,14.4,7.3,29.83,WNW,293,12.3,14.8,73,0.00,,,0.00,WUHU216HW,2013-03-19 14:46:00,
2013-03-19 09:51:00,14.6,7.2,29.83,WNW,293,9.8,14.3,72,0.00,,,0.00,WUHU216HW,2013-03-19 14:51:00,
2013-03-19 09:56:00,14.8,7.4,29.83,WNW,293,12.8,14.3,72,0.00,,,0.00,WUHU216HW,2013-03-19 14:56:00,
2013-03-19 10:01:00,14.9,7.2,29.83,WNW,293,12.1,13.4,71,0.00,,,0.00,WUHU216HW,2013-03-19 15:01:00,
2013-03-19 10:06:00,15.3,7.8,29.83,WNW,293,10.3,13.4,72,0.00,,,0.00,WUHU216HW,2013-03-19 15:06:00,
2013-03-19 10:11:00,15.5,7.8,29.84,WNW,293,8.9,15.9,71,0.00,,,0.00,WUHU216HW,2013-03-19 15:11:00,
2013-03-19 10:16:00,15.8,8.0,29.84,WNW,293,14.3,15.9,71,0.00,,,0.00,WUHU216HW,2013-03-19 15:16:00,
2013-03-19 10:21:00,16.0,7.9,29.84,WNW,293,5.1,14.3,70,0.00,,,0.00,WUHU216HW,2013-03-19 15:21:00,
2013-03-19 10:26:00,16.2,8.1,29.84,WNW,293,6.3,14.3,70,0.00,,,0.00,WUHU216HW,2013-03-19 15:26:00,
2013-03-19 10:31:00,16.2,8.4,29.85,WNW,293,11.6,16.6,71,0.00,,,0.00,WUHU216HW,2013-03-19 15:31:00,
2013-03-19 10:36:00,16.6,8.1,29.85,WNW,293,8.1,17.2,69,0.00,,,0.00,WUHU216HW,2013-03-19 15:36:00,
2013-03-19 10:41:00,16.9,8.8,29.85,WNW,293,10.3,17.2,70,0.00,,,0.00,WUHU216HW,2013-03-19 15:41:00,
2013-03-19 10:46:00,16.9,8.5,29.85,WNW,293,11.0,17.2,69,0.00,,,0.00,WUHU216HW,2013-03-19 15:46:00,
2013-03-19 10:51:00,16.9,8.5,29.85,WNW,293,6.9,17.2,69,0.00,,,0.00,WUHU216HW,2013-03-19 15:51:00,
2013-03-19 10:56:00,17.5,9.0,29.85,WNW,293,14.1,15.4,69,0.00,,,0.00,WUHU216HW,2013-03-19 15:56:00,
2013-03-19 11:01:00,17.6,8.8,29.85,WNW,293,12.3,15.7,68,0.00,,,0.00,WUHU216HW,2013-03-19 16:01:00,
2013-03-19 11:06:00,17.6,9.2,29.85,WNW,293,6.3,17.2,69,0.00,,,0.00,WUHU216HW,2013-03-19 16:06:00,
2013-03-19 11:11:00,18.0,9.2,29.86,WNW,293,8.9,19.9,68,0.00,,,0.00,WUHU216HW,2013-03-19 16:11:00,
2013-03-19 11:16:00,18.4,9.6,29.86,WNW,293,9.2,19.9,68,0.00,,,0.00,WUHU216HW,2013-03-19 16:16:00,
2013-03-19 11:21:00,18.7,9.5,29.86,WNW,293,7.4,16.6,67,0.00,,,0.00,WUHU216HW,2013-03-19 16:21:00,
2013-03-19 11:26:00,19.1,9.8,29.86,WNW,293,10.3,16.6,67,0.00,,,0.00,WUHU216HW,2013-03-19 16:26:00,
2013-03-19 11:31:00,19.1,9.1,29.87,WNW,293,17.2,17.2,65,0.00,,,0.00,WUHU216HW,2013-03-19 16:31:00,
2013-03-19 11:36:00,19.3,9.6,29.87,WNW,293,12.1,17.2,66,0.00,,,0.00,WUHU216HW,2013-03-19 16:36:00,
2013-03-19 11:41:00,19.4,9.5,29.87,WNW,293,11.6,16.6,65,0.00,,,0.00,WUHU216HW,2013-03-19 16:41:00,
2013-03-19 11:46:00,19.8,9.8,29.87,WNW,293,14.1,16.6,65,0.00,,,0.00,WUHU216HW,2013-03-19 16:46:00,
2013-03-19 11:51:00,20.2,10.2,29.87,WNW,293,15.7,17.2,65,0.00,,,0.00,WUHU216HW,2013-03-19 16:51:00,
2013-03-19 11:56:00,20.2,10.2,29.87,WNW,293,10.7,17.2,65,0.00,,,0.00,WUHU216HW,2013-03-19 16:56:00,
2013-03-19 12:01:00,20.7,10.4,29.87,WNW,293,16.6,16.6,64,0.00,,,0.00,WUHU216HW,2013-03-19 17:01:00,
2013-03-19 12:06:00,20.5,9.8,29.87,WNW,293,17.0,17.2,63,0.00,,,0.00,WUHU216HW,2013-03-19 17:06:00,
2013-03-19 12:11:00,21.1,10.7,29.88,WNW,293,17.9,19.2,64,0.00,,,0.00,WUHU216HW,2013-03-19 17:11:00,
2013-03-19 12:16:00,21.1,10.7,29.88,WNW,293,11.9,19.2,64,0.00,,,0.00,WUHU216HW,2013-03-19 17:16:00,
2013-03-19 12:21:00,21.2,10.5,29.88,WNW,293,13.4,16.8,63,0.00,,,0.00,WUHU216HW,2013-03-19 17:21:00,
2013-03-19 12:26:00,21.4,10.1,29.88,WNW,293,12.8,23.3,61,0.00,,,0.00,WUHU216HW,2013-03-19 17:26:00,
2013-03-19 12:32:00,22.0,10.5,29.88,WNW,293,17.9,23.3,61,0.00,,,0.00,WUHU216HW,2013-03-19 17:32:00,
2013-03-19 12:37:00,22.0,10.5,29.88,WNW,293,15.9,19.2,61,0.00,,,0.00,WUHU216HW,2013-03-19 17:37:00,
2013-03-19 12:42:00,22.1,10.4,29.88,WNW,293,12.8,19.2,60,0.00,,,0.00,WUHU216HW,2013-03-19 17:42:00,
2013-03-19 12:47:00,22.3,10.5,29.88,WNW,293,12.5,20.1,60,0.00,,,0.00,WUHU216HW,2013-03-19 17:47:00,
2013-03-19 12:52:00,22.7,10.8,29.88,WNW,293,12.1,20.1,60,0.00,,,0.00,WUHU216HW,2013-03-19 17:52:00,
2013-03-19 12:57:00,22.7,10.8,29.88,WNW,293,12.3,17.9,60,0.00,,,0.00,WUHU216HW,2013-03-19 17:57:00,
2013-03-19 13:02:00,23.2,11.0,29.89,WNW,293,15.0,19.0,59,0.00,,,0.00,WUHU216HW,2013-03-19 18:02:00,
2013-03-19 13:07:00,23.4,11.2,29.89,WNW,293,12.1,19.0,59,0.00,,,0.00,WUHU216HW,2013-03-19 18:07:00,
2013-03-19 13:12:00,23.8,11.1,29.89,WNW,293,13.9,16.3,58,0.00,,,0.00,WUHU216HW,2013-03-19 18:12:00,
2013-03-19 13:17:00,23.8,11.1,29.89,WNW,293,13.2,17.2,58,0.00,,,0.00,WUHU216HW,2013-03-19 18:17:00,
2013-03-19 13:22:00,23.8,10.7,29.90,WNW,293,15.7,17.2,57,0.00,,,0.00,WUHU216HW,2013-03-19 18:22:00,
2013-03-19 13:27:00,24.3,11.2,29.90,WNW,293,14.3,16.8,57,0.00,,,0.00,WUHU216HW,2013-03-19 18:27:00,
2013-03-19 13:32:00,24.7,11.2,29.90,WNW,293,9.8,15.7,56,0.00,,,0.00,WUHU216HW,2013-03-19 18:32:00,
2013-03-19 13:37:00,24.7,11.2,29.90,WNW,293,13.6,17.9,56,0.00,,,0.00,WUHU216HW,2013-03-19 18:37:00,
2013-03-19 13:42:00,24.8,11.4,29.89,WNW,293,13.6,17.9,56,0.00,,,0.00,WUHU216HW,2013-03-19 18:42:00,
2013-03-19 13:47:00,25.6,12.0,29.90,WNW,293,6.9,17.4,56,0.00,,,0.00,WUHU216HW,2013-03-19 18:47:00,
2013-03-19 13:52:00,25.6,11.2,29.90,WNW,293,13.0,17.2,54,0.00,,,0.00,WUHU216HW,2013-03-19 18:52:00,
2013-03-19 13:57:00,25.7,11.3,29.90,WNW,293,9.2,15.9,54,0.00,,,0.00,WUHU216HW,2013-03-19 18:57:00,
2013-03-19 14:02:00,26.6,12.1,29.90,WNW,293,10.5,14.1,54,0.00,,,0.00,WUHU216HW,2013-03-19 19:02:00,
2013-03-19 14:07:00,26.6,11.7,29.90,WNW,293,7.6,15.2,53,0.00,,,0.00,WUHU216HW,2013-03-19 19:07:00,
2013-03-19 14:12:00,26.6,11.3,29.90,WNW,293,8.3,15.2,52,0.00,,,0.00,WUHU216HW,2013-03-19 19:12:00,
2013-03-19 14:17:00,27.0,12.1,29.90,WNW,293,8.5,14.3,53,0.00,,,0.00,WUHU216HW,2013-03-19 19:17:00,
2013-03-19 14:22:00,27.4,12.0,29.90,WNW,293,5.6,11.4,52,0.00,,,0.00,WUHU216HW,2013-03-19 19:22:00,
2013-03-19 14:27:00,27.5,11.3,29.90,WNW,293,15.0,15.0,50,0.00,,,0.00,WUHU216HW,2013-03-19 19:27:00,
2013-03-19 14:32:00,27.5,11.3,29.90,WNW,293,11.2,15.7,50,0.00,,,0.00,WUHU216HW,2013-03-19 19:32:00,
2013-03-19 14:37:00,27.5,10.9,29.90,WNW,293,6.5,15.7,49,0.00,,,0.00,WUHU216HW,2013-03-19 19:37:00,
2013-03-19 14:42:00,27.7,11.0,29.90,WNW,293,13.6,13.9,49,0.00,,,0.00,WUHU216HW,2013-03-19 19:42:00,
2013-03-19 14:47:00,28.1,10.9,29.90,WNW,293,6.5,15.0,48,0.00,,,0.00,WUHU216HW,2013-03-19 19:47:00,
2013-03-19 14:52:00,28.4,11.3,29.90,WNW,293,8.5,15.0,48,0.00,,,0.00,WUHU216HW,2013-03-19 19:52:00,
2013-03-19 14:57:00,28.3,11.1,29.90,WNW,293,10.5,17.4,48,0.02,,,0.02,WUHU216HW,2013-03-19 19:57:00,
2013-03-19 15:02:00,28.1,10.9,29.90,WNW,293,15.0,17.4,48,0.02,,,0.02,WUHU216HW,2013-03-19 20:02:00,
2013-03-19 15:07:00,28.4,10.7,29.90,WNW,293,13.2,16.8,47,0.02,,,0.02,WUHU216HW,2013-03-19 20:07:00,
2013-03-19 15:12:00,28.3,10.5,29.90,West,270,6.9,15.9,47,0.02,,,0.02,WUHU216HW,2013-03-19 20:12:00,
2013-03-19 15:17:00,28.6,10.9,29.90,WNW,293,9.8,15.4,47,0.02,,,0.02,WUHU216HW,2013-03-19 20:17:00,
2013-03-19 15:22:00,29.3,11.5,29.91,WNW,293,11.4,13.4,47,0.02,,,0.02,WUHU216HW,2013-03-19 20:22:00,
2013-03-19 15:27:00,29.9,11.5,29.91,West,270,8.5,14.3,46,0.02,,,0.02,WUHU216HW,2013-03-19 20:27:00,
2013-03-19 15:32:00,29.7,10.9,29.91,West,270,10.1,14.3,45,0.02,,,0.02,WUHU216HW,2013-03-19 20:32:00,
2013-03-19 15:37:00,30.2,10.8,29.91,WNW,293,11.2,14.1,44,0.02,,,0.02,WUHU216HW,2013-03-19 20:37:00,
2013-03-19 15:42:00,30.1,10.7,29.91,West,270,6.3,15.4,44,0.02,,,0.02,WUHU216HW,2013-03-19 20:42:00,
2013-03-19 15:47:00,30.2,11.3,29.91,WNW,293,5.4,15.4,45,0.02,,,0.02,WUHU216HW,2013-03-19 20:47:00,
2013-03-19 15:52:00,31.0,11.5,29.91,West,270,5.4,13.4,44,0.00,,,0.02,WUHU216HW,2013-03-19 20:52:00,
2013-03-19 15:57:00,32.4,12.2,29.91,WSW,248,10.5,11.9,43,0.00,,,0.02,WUHU216HW,2013-03-19 20:57:00,
2013-03-19 16:02:00,32.0,13.0,29.91,West,270,9.2,11.9,45,0.00,,,0.02,WUHU216HW,2013-03-19 21:02:00,
2013-03-19 16:07:00,31.7,12.6,29.92,WSW,248,7.2,12.1,45,0.00,,,0.02,WUHU216HW,2013-03-19 21:07:00,
2013-03-19 16:12:00,31.5,12.5,29.92,WSW,248,11.2,13.2,45,0.00,,,0.02,WUHU216HW,2013-03-19 21:12:00,
2013-03-19 16:17:00,31.0,12.0,29.92,West,270,6.9,13.2,45,0.00,,,0.02,WUHU216HW,2013-03-19 21:17:00,
2013-03-19 16:22:00,31.3,12.3,29.92,WNW,293,5.8,13.0,45,0.00,,,0.02,WUHU216HW,2013-03-19 21:22:00,
2013-03-19 16:27:00,31.3,12.8,29.93,WNW,293,2.2,11.6,46,0.00,,,0.02,WUHU216HW,2013-03-19 21:27:00,
2013-03-19 16:32:00,32.2,12.6,29.93,WSW,248,8.3,9.2,44,0.00,,,0.02,WUHU216HW,2013-03-19 21:32:00,
2013-03-19 16:37:00,31.3,11.8,29.93,SW,225,6.9,9.4,44,0.00,,,0.02,WUHU216HW,2013-03-19 21:37:00,
2013-03-19 16:42:00,31.7,12.6,29.93,WSW,248,7.8,11.2,45,0.00,,,0.02,WUHU216HW,2013-03-19 21:42:00,
2013-03-19 16:47:00,32.0,13.0,29.93,WNW,293,6.0,12.1,45,0.00,,,0.02,WUHU216HW,2013-03-19 21:47:00,
2013-03-19 16:52:00,32.0,12.4,29.93,NNW,338,5.4,12.1,44,0.00,,,0.02,WUHU216HW,2013-03-19 21:52:00,
2013-03-19 16:57:00,32.0,11.0,29.93,WNW,293,9.6,13.2,41,0.00,,,0.02,WUHU216HW,2013-03-19 21:57:00,
2013-03-19 17:02:00,32.0,11.4,29.93,West,270,8.7,13.2,42,0.00,,,0.02,WUHU216HW,2013-03-19 22:02:00,
2013-03-19 17:07:00,32.0,12.0,29.93,West,270,4.9,10.3,43,0.00,,,0.02,WUHU216HW,2013-03-19 22:07:00,
2013-03-19 17:12:00,32.0,12.0,29.93,West,270,2.9,10.3,43,0.00,,,0.02,WUHU216HW,2013-03-19 22:12:00,
2013-03-19 17:17:00,31.9,11.8,29.94,WSW,248,9.4,9.8,43,0.00,,,0.02,WUHU216HW,2013-03-19 22:17:00,
2013-03-19 17:22:00,31.5,11.4,29.94,North,0,7.6,13.2,43,0.00,,,0.02,WUHU216HW,2013-03-19 22:22:00,
2013-03-19 17:27:00,31.1,11.6,29.94,West,270,13.2,15.7,44,0.00,,,0.02,WUHU216HW,2013-03-19 22:27:00,
2013-03-19 17:33:00,31.3,11.8,29.94,WNW,293,5.4,15.7,44,0.00,,,0.02,WUHU216HW,2013-03-19 22:33:00,
2013-03-19 17:37:00,31.0,11.5,29.94,NNW,338,4.7,12.1,44,0.00,,,0.02,WUHU216HW,2013-03-19 22:37:00,
2013-03-19 17:42:00,30.4,11.5,29.94,WSW,248,9.6,12.1,45,0.00,,,0.02,WUHU216HW,2013-03-19 22:42:00,
2013-03-19 17:47:00,30.1,11.2,29.94,West,270,9.6,11.4,45,0.00,,,0.02,WUHU216HW,2013-03-19 22:47:00,
2013-03-19 17:53:00,29.9,11.0,29.94,West,270,5.4,11.4,45,0.00,,,0.02,WUHU216HW,2013-03-19 22:53:00,
2013-03-19 17:58:00,29.9,10.5,29.94,SW,225,13.2,15.0,44,0.00,,,0.02,WUHU216HW,2013-03-19 22:58:00,
2013-03-19 18:03:00,29.3,10.5,29.95,West,270,6.0,15.0,45,0.00,,,0.02,WUHU216HW,2013-03-19 23:03:00,
2013-03-19 18:08:00,29.0,10.7,29.95,WSW,248,13.2,13.4,46,0.00,,,0.02,WUHU216HW,2013-03-19 23:08:00,
2013-03-19 18:13:00,28.1,9.9,29.95,NW,315,6.9,14.3,46,0.00,,,0.02,WUHU216HW,2013-03-19 23:13:00,
2013-03-19 18:18:00,27.7,10.5,29.96,West,270,7.8,14.3,48,0.00,,,0.02,WUHU216HW,2013-03-19 23:18:00,
2013-03-19 18:23:00,27.7,10.5,29.96,WSW,248,4.9,13.4,48,0.00,,,0.02,WUHU216HW,2013-03-19 23:23:00,
2013-03-19 18:28:00,27.5,10.4,29.96,WNW,293,4.3,12.1,48,0.00,,,0.02,WUHU216HW,2013-03-19 23:28:00,
2013-03-19 18:32:00,27.4,10.2,29.96,WSW,248,5.6,12.1,48,0.00,,,0.02,WUHU216HW,2013-03-19 23:32:00,
2013-03-19 18:37:00,27.2,10.0,29.96,WNW,293,9.2,11.9,48,0.00,,,0.02,WUHU216HW,2013-03-19 23:37:00,
2013-03-19 18:42:00,27.0,9.8,29.96,WSW,248,12.5,12.5,48,0.00,,,0.02,WUHU216HW,2013-03-19 23:42:00,
2013-03-19 18:48:00,26.6,9.5,29.96,WSW,248,5.8,12.5,48,0.00,,,0.02,WUHU216HW,2013-03-19 23:48:00,
2013-03-19 18:53:00,26.6,10.0,29.96,WNW,293,8.5,12.5,49,0.00,,,0.02,WUHU216HW,2013-03-19 23:53:00,
2013-03-19 18:58:00,26.3,9.6,29.97,WSW,248,7.6,14.8,49,0.00,,,0.02,WUHU216HW,2013-03-19 23:58:00,
2013-03-19 19:03:00,26.3,9.6,29.97,WNW,293,4.0,14.8,49,0.00,,,0.02,WUHU216HW,2013-03-20 00:03:00,
2013-03-19 19:08:00,26.1,9.5,29.97,WSW,248,9.4,13.4,49,0.00,,,0.02,WUHU216HW,2013-03-20 00:08:00,
2013-03-19 19:13:00,25.9,9.8,29.97,West,270,10.7,13.4,50,0.00,,,0.02,WUHU216HW,2013-03-20 00:13:00,
2013-03-19 19:18:00,25.6,9.9,29.97,WNW,293,7.8,13.0,51,0.00,,,0.02,WUHU216HW,2013-03-20 00:18:00,
2013-03-19 19:23:00,25.2,10.0,29.97,WSW,248,7.6,12.8,52,0.00,,,0.02,WUHU216HW,2013-03-20 00:23:00,
2013-03-19 19:28:00,24.8,9.6,29.97,West,270,8.5,12.8,52,0.00,,,0.02,WUHU216HW,2013-03-20 00:28:00,
2013-03-19 19:33:00,24.8,10.1,29.97,WSW,248,5.1,12.1,53,0.00,,,0.02,WUHU216HW,2013-03-20 00:33:00,
2013-03-19 19:38:00,24.5,10.2,29.97,WSW,248,6.9,12.1,54,0.00,,,0.02,WUHU216HW,2013-03-20 00:38:00,
2013-03-19 19:43:00,24.1,9.8,29.98,West,270,5.8,11.9,54,0.00,,,0.02,WUHU216HW,2013-03-20 00:43:00,
2013-03-19 19:48:00,24.1,10.2,29.98,SW,225,6.3,11.9,55,0.00,,,0.02,WUHU216HW,2013-03-20 00:48:00,
2013-03-19 19:53:00,23.8,10.3,29.98,NNW,338,6.3,10.7,56,0.00,,,0.02,WUHU216HW,2013-03-20 00:53:00,
2013-03-19 19:58:00,23.6,10.5,29.98,SSW,203,8.9,12.8,57,0.00,,,0.02,WUHU216HW,2013-03-20 00:58:00,
2013-03-19 20:03:00,23.6,10.5,29.98,WNW,293,6.7,12.8,57,0.00,,,0.02,WUHU216HW,2013-03-20 01:03:00,
2013-03-19 20:08:00,23.2,11.0,29.99,West,270,6.3,11.4,59,0.00,,,0.02,WUHU216HW,2013-03-20 01:08:00,
2013-03-19 20:13:00,23.2,10.5,29.99,West,270,11.0,11.4,58,0.00,,,0.02,WUHU216HW,2013-03-20 01:13:00,
2013-03-19 20:18:00,23.0,10.8,29.99,West,270,6.5,14.8,59,0.00,,,0.02,WUHU216HW,2013-03-20 01:18:00,
2013-03-19 20:23:00,22.9,10.2,29.99,WSW,248,6.7,14.8,58,0.00,,,0.02,WUHU216HW,2013-03-20 01:23:00,
2013-03-19 20:28:00,22.9,10.2,29.99,WSW,248,9.2,12.8,58,0.00,,,0.02,WUHU216HW,2013-03-20 01:28:00,
2013-03-19 20:33:00,22.7,10.1,29.99,West,270,8.5,12.8,58,0.00,,,0.02,WUHU216HW,2013-03-20 01:33:00,
2013-03-19 20:38:00,22.7,10.1,29.99,WNW,293,7.6,12.5,58,0.00,,,0.02,WUHU216HW,2013-03-20 01:38:00,
2013-03-19 20:43:00,22.5,10.3,29.99,SW,225,4.9,9.4,59,0.00,,,0.02,WUHU216HW,2013-03-20 01:43:00,
2013-03-19 20:48:00,22.3,10.1,29.99,West,270,9.2,10.3,59,0.00,,,0.02,WUHU216HW,2013-03-20 01:48:00,
2013-03-19 20:53:00,22.3,10.1,29.99,WSW,248,5.6,10.3,59,0.00,,,0.02,WUHU216HW,2013-03-20 01:53:00,
2013-03-19 20:58:00,22.0,10.2,29.99,WSW,248,2.9,9.2,60,0.00,,,0.02,WUHU216HW,2013-03-20 01:58:00,
2013-03-19 21:03:00,22.0,9.8,29.99,WSW,248,5.6,8.7,59,0.00,,,0.02,WUHU216HW,2013-03-20 02:03:00,
2013-03-19 21:08:00,21.8,9.6,29.99,WSW,248,11.4,11.4,59,0.00,,,0.02,WUHU216HW,2013-03-20 02:08:00,
2013-03-19 21:13:00,21.8,9.6,29.99,WNW,293,6.5,11.4,59,0.00,,,0.02,WUHU216HW,2013-03-20 02:13:00,
2013-03-19 21:18:00,21.8,9.6,29.99,WSW,248,7.4,11.4,59,0.00,,,0.02,WUHU216HW,2013-03-20 02:18:00,
2013-03-19 21:23:00,21.6,9.9,29.99,WNW,293,6.5,8.9,60,0.00,,,0.02,WUHU216HW,2013-03-20 02:23:00,
2013-03-19 21:28:00,21.6,9.9,29.99,West,270,7.2,11.0,60,0.00,,,0.02,WUHU216HW,2013-03-20 02:28:00,
2013-03-19 21:33:00,21.4,10.1,29.99,West,270,5.8,11.0,61,0.00,,,0.02,WUHU216HW,2013-03-20 02:33:00,
2013-03-19 21:38:00,21.2,9.9,29.99,WSW,248,8.3,9.2,61,0.00,,,0.02,WUHU216HW,2013-03-20 02:38:00,
2013-03-19 21:43:00,21.1,9.7,29.99,SW,225,6.5,8.7,61,0.00,,,0.02,WUHU216HW,2013-03-20 02:43:00,
2013-03-19 21:48:00,21.1,9.4,29.99,West,270,9.6,9.8,60,0.00,,,0.02,WUHU216HW,2013-03-20 02:48:00,
2013-03-19 21:53:00,21.1,9.4,29.99,SW,225,5.4,13.2,60,0.00,,,0.02,WUHU216HW,2013-03-20 02:53:00,
2013-03-19 21:58:00,20.9,8.7,30.00,West,270,7.4,13.2,59,0.00,,,0.02,WUHU216HW,2013-03-20 02:58:00,
2013-03-19 22:03:00,20.7,9.0,30.00,WNW,293,9.4,11.9,60,0.00,,,0.02,WUHU216HW,2013-03-20 03:03:00,
2013-03-19 22:08:00,20.5,8.8,30.00,West,270,7.6,9.4,60,0.00,,,0.02,WUHU216HW,2013-03-20 03:08:00,
2013-03-19 22:13:00,20.5,8.4,30.00,WNW,293,8.3,11.2,59,0.00,,,0.02,WUHU216HW,2013-03-20 03:13:00,
2013-03-19 22:18:00,20.3,8.6,30.00,WNW,293,3.1,11.2,60,0.00,,,0.02,WUHU216HW,2013-03-20 03:18:00,
2013-03-19 22:23:00,20.2,8.5,30.00,NW,315,11.0,11.0,60,0.00,,,0.02,WUHU216HW,2013-03-20 03:23:00,
2013-03-19 22:28:00,20.2,8.1,30.01,NW,315,7.6,11.9,59,0.00,,,0.02,WUHU216HW,2013-03-20 03:28:00,
2013-03-19 22:33:00,20.2,8.1,30.00,NW,315,8.5,11.9,59,0.00,,,0.02,WUHU216HW,2013-03-20 03:33:00,
2013-03-19 22:38:00,20.0,8.3,30.00,West,270,4.9,9.4,60,0.00,,,0.02,WUHU216HW,2013-03-20 03:38:00,
2013-03-19 22:43:00,19.8,8.1,30.00,NW,315,6.7,9.4,60,0.00,,,0.02,WUHU216HW,2013-03-20 03:43:00,
2013-03-19 22:48:00,19.8,8.1,30.00,WNW,293,10.7,14.3,60,0.00,,,0.02,WUHU216HW,2013-03-20 03:48:00,
2013-03-19 22:53:00,19.4,7.7,30.00,WNW,293,10.3,14.3,60,0.00,,,0.02,WUHU216HW,2013-03-20 03:53:00,
2013-03-19 22:58:00,19.4,8.1,30.00,WNW,293,11.2,11.2,61,0.00,,,0.02,WUHU216HW,2013-03-20 03:58:00,
2013-03-19 23:00:00,19.3,7.9,30.00,West,270,9.2,11.2,61,0.00,,,0.02,WUHU216HW,2013-03-20 04:00:00,
2013-03-19 23:05:00,19.3,7.9,30.00,NW,315,8.7,11.2,61,0.00,,,0.02,WUHU216HW,2013-03-20 04:05:00,
2013-03-19 23:10:00,19.1,7.7,30.00,WNW,293,10.5,11.6,61,0.00,,,0.02,WUHU216HW,2013-03-20 04:10:00,
2013-03-19 23:15:00,19.1,7.7,30.01,WNW,293,6.0,11.6,61,0.00,,,0.02,WUHU216HW,2013-03-20 04:15:00,
2013-03-19 23:20:00,18.9,7.9,30.00,WNW,293,7.6,10.5,62,0.00,,,0.02,WUHU216HW,2013-03-20 04:20:00,
2013-03-19 23:25:00,18.7,7.5,30.01,West,270,9.2,11.4,61,0.00,,,0.02,WUHU216HW,2013-03-20 04:25:00,
2013-03-19 23:30:00,18.5,7.3,30.01,West,270,4.0,14.3,61,0.00,,,0.02,WUHU216HW,2013-03-20 04:30:00,
2013-03-19 23:35:00,18.4,7.5,30.01,West,270,3.4,14.3,62,0.00,,,0.02,WUHU216HW,2013-03-20 04:35:00,
2013-03-19 23:40:00,18.2,7.3,30.01,WSW,248,6.5,8.1,62,0.00,,,0.02,WUHU216HW,2013-03-20 04:40:00,
2013-03-19 23:45:00,18.0,7.5,30.01,WNW,293,4.0,9.8,63,0.00,,,0.02,WUHU216HW,2013-03-20 04:45:00,
2013-03-19 23:50:00,17.8,6.9,30.00,West,270,10.3,10.3,62,0.00,,,0.02,WUHU216HW,2013-03-20 04:50:00,
2013-03-19 23:55:00,17.6,6.9,30.01,NW,315,9.8,10.3,62,0.00,,,0.02,WUHU216HW,2013-03-20 04:55:00,